SCP
0 0 0 0 0 0 0 0 0 0 0 0 0 0 0 0 0 0 0 0 0 0 0 0 0 0 0 -0 0 0 -0 -0 0 0 0 0 -0 0 0 0 -0 -0 0 0 0 0 0
0 0 0 0 0 0 0 0 0 0 0 0 0 0 0 0 0 0 0 0 0 0 0 0 0 0 0 -0 0 0 -0 -0 -0 0 0 -0 0 -0 0 0 0 0 -0 0 0 0 0
0 0 0 0 0 0 0 0 0 0 0 -0 -0 -0 -0 0 0 0 0 0 0 0 0 -0 0 0 -0 0 0 0 0 0 0 0 0 -0 0 0 0 -0 0 0 0 0 0 0 0
0 0 0 0 0 0 -0 -0 -0 -0 -0 -0 -0 -0 0 0 0 0 0 0 0 0 0 0 0 0 -0 0 0 -0 0 -0 0 0 0 0 0 0 0 0 0 0 0 0 0 0 0
-0 -0 -0 -0 -0 -0 -0 -0 -0 -0 -0 -0 -0 -0 0 0 0 0 0 0 0 0 0 0 0 -0 0 0 0 0 0 -0 0 0 -0 0 0 0 -0 0 0 0 0 0 0 0 0
-0 -0 -0 -0 -0 -0 -0 -0 -0 -0 -0 -0 -0 0 0 0 0 0 0 0 0 0 0 0 -0 0 0 0 0 0 0 0 0 0 0 0 0 0 0 0 0 0 0 0 0 0 0
-0 -0 -0 -0 -0 -0 -0 -0 -0 -0 -0 -0 0 0 0 0 0 0 0 0 0 0 0 0 0 0 0 0 0 0 0 0 0 0 0 0 0 0 0 0 0 0 0 0 0 0 0
-0 -0 -0 -0 -0 -0 -0 -0 -0 -0 -0 -0 0 0 0 0 0 0 0 0 0 0 0 0 0 0 0 0 0 -0 0 0 0 0 0 0 -0 0 0 0 0 0 0 0 0 0 0
-0 -0 -0 -0 -0 -0 -0 -0 -0 -0 -0 -0 0 0 0 0 0 0 0 0 0 0 0 0 0 0 0 0 0 0 0 0 0 0 0 0 0 0 0 0 0 0 0 0 0 0 0
-0 -0 -0 -0 -0 -0 -0 -0 -0 -0 -0 -0 0 0 0 0 0 0 0 0 0 0 0 0 0 0 0 0 0 0 0 0 0 0 0 0 0 0 0 0 0 0 0 0 0 0 0
-0 -0 -0 -0 -0 -0 -0 -0 -0 -0 -0 -0 0 0 0 0 0 0 0 0 -0 0 0 0 0 0 0 0 0 0 0 0 0 0 0 0 0 0 0 0 0 0 0 0 0 0 0
-0 -0 -0 -0 -0 -0 -0 -0 -0 -0 -0 -0 -0 0 0 0 0 0 0 0 0 0 0 0 0 0 0 -0 0 0 0 0 0 0 0 0 0 0 0 0 0 0 0 0 0 0 0
-0 -0 -0 -0 -0 -0 -0 -0 -0 -0 -0 -0 -0 0 0 0 0 0 0 0 0 0 0 0 -0 0 -0 -0 0 0 0 0 0 0 0 0 0 0 0 0 0 0 0 0 0 0 0
-0 -0 -0 -0 -0 -0 -0 -0 -0 -0 -0 -0 -0 0 0 0 0 0 0 0 0 0 0 0 -0 0 0 -0 0 0 0 0 0 0 0 0 0 0 0 0 0 0 0 0 0 0 0
-0 -0 -0 -0 -0 -0 -0 -0 -0 -0 -0 -0 -0 0 0 0 0 0 0 0 0 0 0 0 0 0 0 0 0 0 0 0 0 0 0 0 0 0 0 0 0 0 0 0 0 0 0
-0 -0 -0 -0 -0 -0 -0 -0 -0 -0 -0 -0 0 0 0 0 0 0 0 0 0 0 0 0 0 0 0 0 0 0 0 0 0 0 0 0 0 0 0 0 0 0 0 0 0 0 0
-0 -0 -0 -0 -0 -0 -0 -0 -0 -0 -0 -0 0 0 0 0 0 0 0 0 0 0 0 0 0 0 0 0 0 0 0 0 0 0 0 0 0 0 0 0 0 0 0 0 0 0 0
-0 -0 -0 -0 -0 -0 -0 -0 -0 -0 -0 0 0 0 0 0 0 0 0 0 0 0 0 0 0 0 0 0 0 0 0 0 0 0 0 0 0 0 0 0 0 0 0 0 0 0 0
-0 -0 -0 -0 -0 -0 -0 -0 -0 -0 0 0 0 0 0 0 0 0 0 0 0 0 0 0 0 0 0 0 0 0 0 0 0 0 0 0 0 0 0 0 0 0 0 0 0 0 0
-0 -0 -0 -0 -0 -0 -0 -0 -0 -0 0 0 0 0 0 0 0 0 0 0 0 0 0 0 0 0 0 0 0 0 0 0 0 0 0 0 0 0 0 0 0 0 0 0 0 0 0
0 -0 -0 -0 -0 -0 -0 -0 -0 -0 0 0 0 0 0 0 0 0 0 0 0 0 0 0 0 0 0 0 0 0 0 0 0 0 0 0 0 0 0 0 0 0 0 0 0 0 0
0 0 0 -0 -0 -0 -0 -0 -0 -0 0 0 0 0 0 0 0 0 0 0 0 0 0 0 0 0 0 0 0 0 0 0 0 0 0 0 0 0 0 0 0 0 0 0 0 0 0
0 0 0 0 0 -0 -0 -0 -0 -0 0 0 0 0 0 0 0 0 0 0 0 0 0 0 0 0 0 0 0 0 0 0 0 0 0 0 0 0 0 0 0 0 0 0 0 0 0
0 0 0 0 0 0 0 0 0 0 0 0 0 0 0 0 0 0 0 0 0 0 0 0 0 0 0 0 0 0 0 0 0 0 0 0 0 0 0 0 0 0 0 0 0 0 0
0 0 0 0 0 0 0 0 0 0 0 0 0 0 0 0 0 0 0 0 0 0 0 0 0 0 0 0 0 0 0 0 0 0 0 0 0 0 0 0 0 0 0 0 0 0 0
0 0 0 0 0 0 0 0 0 0 0 0 0 0 0 0 0 0 0 0 0 0 0 0 0 0 0 0 0 0 0 0 0 0 0 0 0 0 0 0 0 0 0 0 0 0 0
0 0 0 0 0 0 0 0 0 0 0 0 0 0 0 0 0 0 0 0 0 0 0 0 0 0 0 0 0 0 0 0 0 0 0 0 0 0 0 0 0 0 0 0 0 0 0
0 0 0 0 0 0 0 0 0 0 0 0 0 0 0 0 0 0 0 0 0 0 0 0 0 0 0 0 0 0 0 0 0 0 0 0 0 0 0 0 0 0 0 0 0 0 0
0 0 0 0 0 0 0 0 0 0 0 0 0 0 0 0 0 0 0 0 0 0 0 0 0 0 0 0 0 0 0 0 0 0 0 0 0 0 0 0 0 -0 0 0 0 0 0
Wind_Speed_500mb
28 28 28 30 30 30 31 31 31 32 35 37 33 29 29 28 25 25 29 31 39 34 30 18 27 23 40 89 39 58 62 43 21 22 30 41 57 32 25 41 64 39 30 30 36 36 29
32 30 30 29 28 27 26 27 29 32 35 34 30 26 26 24 22 25 29 31 31 34 33 46 21 11 39 74 45 53 57 40 35 22 25 30 49 66 35 11 17 31 52 36 18 22 16
31 31 29 27 26 26 25 25 25 26 25 23 21 21 22 19 14 16 22 26 26 33 49 49 26 66 96 45 45 37 57 50 38 38 58 56 23 30 42 50 47 47 29 22 9 4 10
31 30 28 26 27 27 26 26 25 23 21 19 21 27 20 14 15 19 15 17 24 25 23 27 24 66 46 43 42 35 38 50 45 56 62 55 54 67 23 54 12 8 6 5 9 5 5
29 28 28 27 26 26 25 24 23 21 20 22 29 24 20 20 15 15 15 12 19 28 35 28 19 38 20 21 47 45 33 44 49 58 67 60 69 46 17 11 9 14 6 8 3 7 4
25 24 24 24 24 24 21 20 19 20 21 24 25 22 17 16 16 22 43 50 35 3 9 18 34 22 29 42 22 41 44 28 24 39 27 30 27 20 19 6 7 7 5 5 6 8 8
23 22 20 19 19 21 20 17 17 20 24 26 26 19 15 11 11 24 9 8 9 31 74 52 44 38 14 31 46 33 19 47 58 58 15 39 28 27 21 21 14 13 4 6 6 6 6
20 19 18 15 13 14 16 16 14 15 18 23 25 18 18 22 21 8 3 25 26 23 34 37 32 38 44 29 23 45 35 22 28 15 13 20 26 6 12 11 10 8 7 3 7 4 6
21 19 17 14 11 8 10 12 13 13 14 19 20 16 13 17 23 20 34 38 22 14 15 15 23 25 15 33 28 33 21 26 28 35 29 21 9 12 3 5 3 5 11 6 8 6 2
24 23 21 17 12 7 5 8 9 10 11 14 18 15 8 8 9 14 22 20 13 8 8 17 14 13 15 8 17 32 15 5 8 9 9 17 5 6 6 8 6 7 11 8 4 5 7
25 25 23 21 16 8 3 5 8 8 9 10 13 14 15 10 9 8 10 8 5 2 8 8 8 9 22 16 7 22 22 28 12 7 3 4 3 6 10 4 6 7 6 2 3 2 6
22 24 25 23 21 13 5 3 8 8 8 9 11 12 11 17 10 6 6 4 3 9 4 2 3 5 7 15 6 4 14 17 9 11 24 6 2 3 3 2 4 9 3 4 4 1 2
20 22 24 25 23 17 8 4 5 10 7 8 11 13 11 10 10 11 8 2 8 10 3 0 3 4 6 6 9 11 7 13 7 2 10 3 2 3 2 5 3 11 4 5 3 4 6
18 20 22 24 25 21 11 6 6 9 11 7 11 12 10 13 11 13 14 8 12 4 6 2 4 3 5 2 4 5 4 5 8 6 5 6 1 0 0 4 4 10 9 6 9 8 13
17 19 20 22 24 23 15 8 6 11 12 8 11 12 9 13 12 15 4 8 12 10 7 10 4 4 2 1 5 6 6 3 1 4 4 3 2 3 2 4 2 3 7 2 1 1 7
17 18 19 19 21 22 18 9 6 11 11 11 13 12 10 12 18 10 8 5 3 6 6 4 7 4 5 3 2 2 4 4 6 2 1 6 4 1 7 6 16 2 13 1 5 11 10
15 17 18 19 19 21 19 10 4 8 11 13 11 6 10 17 12 3 6 7 5 5 5 4 8 5 3 6 5 4 6 3 6 6 4 5 1 4 4 10 9 6 5 7 4 2 6
15 17 17 18 18 19 18 12 3 8 12 11 4 4 12 18 5 7 5 6 7 8 6 3 6 4 8 10 6 6 5 1 11 13 4 3 3 7 2 3 4 3 6 8 4 4 4
14 14 17 17 17 17 17 14 5 6 13 10 4 5 9 15 6 0 2 1 3 6 5 5 4 2 2 8 3 4 6 1 12 6 8 11 2 8 5 4 0 9 9 7 10 5 13
17 15 15 16 16 16 16 14 7 6 14 9 2 4 4 6 7 11 7 5 5 3 5 7 7 6 4 3 2 8 7 7 8 6 9 10 5 8 8 4 4 8 12 20 11 7 7
17 17 15 15 14 13 14 14 9 6 14 11 2 2 4 3 4 8 7 8 6 6 3 8 1 7 9 7 5 7 5 5 3 14 6 5 7 7 20 26 20 22 25 26 25 11 14
18 18 16 15 13 13 12 11 11 2 15 18 4 5 6 5 3 9 1 10 13 6 12 7 7 9 10 9 11 13 12 9 9 9 9 2 3 3 10 5 6 23 27 30 34 17 27
16 17 18 16 14 11 11 9 7 4 9 9 14 8 3 3 6 6 7 9 12 14 12 3 13 9 8 13 9 5 15 5 13 17 16 9 4 2 9 7 18 14 12 28 14 19 12
16 15 16 16 15 11 10 9 5 2 5 13 10 11 8 4 8 9 5 14 14 18 6 8 10 8 7 13 16 12 9 9 18 8 11 11 6 3 8 17 6 2 7 10 14 15 34
15 13 15 14 16 14 7 8 11 4 3 6 13 12 9 4 9 9 17 8 7 9 5 9 7 8 21 10 3 2 2 1 2 1 6 2 6 3 5 5 18 6 8 13 13 12 24
18 14 14 15 13 13 12 7 8 10 6 5 6 14 11 5 10 8 9 14 7 5 5 5 8 21 14 6 4 5 7 4 6 6 7 8 4 3 4 4 9 1 8 13 8 11 23
17 15 12 14 15 13 11 11 7 8 10 7 6 10 12 8 10 15 11 9 15 10 6 8 13 12 13 4 4 8 7 3 8 11 12 8 6 13 9 9 21 20 19 16 3 5 31
23 17 14 13 15 16 13 10 10 9 9 11 11 8 13 10 12 16 18 16 15 16 8 18 12 6 5 6 6 5 7 6 5 6 12 17 17 10 9 9 18 28 19 14 11 19 26
28 22 17 12 15 18 16 12 10 11 11 11 12 12 12 15 10 12 22 26 27 18 17 35 6 12 21 6 5 3 6 4 6 6 2 9 12 11 22 15 8 68 23 34 22 22 26
Wind_Direction_500mb
78 79 82 86 88 93 95 96 101 104 107 108 105 108 115 111 93 78 71 68 58 73 65 64 82 75 70 64 39 21 14 26 92 122 108 98 88 85 91 101 84 92 98 91 108 99 96
81 83 87 87 88 92 96 99 105 110 115 110 100 100 108 112 92 88 82 67 76 68 64 49 86 87 77 68 31 31 29 50 72 79 88 90 99 109 84 86 68 120 114 111 99 105 133
77 82 86 84 84 91 97 102 106 113 124 115 100 105 113 114 103 95 71 80 69 67 71 62 75 80 68 50 40 56 39 56 73 74 92 101 81 110 101 91 109 117 107 105 81 107 129
69 75 82 81 83 91 97 99 105 114 121 120 106 109 112 116 99 93 76 85 66 66 69 56 70 66 74 55 46 57 55 65 77 80 86 98 103 92 85 121 90 86 83 87 37 27 12
71 72 75 75 78 87 95 97 98 105 115 118 117 105 106 111 97 79 84 83 90 80 69 65 68 58 59 39 44 48 50 82 86 98 94 89 86 89 110 99 92 34 83 68 179 32 316
71 72 72 74 75 81 91 92 91 101 117 126 128 114 101 104 104 107 94 83 74 144 78 54 48 66 51 38 58 52 48 65 103 107 87 52 69 82 48 29 57 26 39 40 326 348 344
65 66 71 75 74 81 87 94 96 110 117 129 134 119 92 76 119 146 66 50 74 47 68 74 73 84 81 67 52 51 52 64 71 67 55 27 72 58 42 55 84 94 110 229 258 322 265
59 62 63 70 79 81 88 95 108 123 133 140 137 117 90 74 81 102 320 92 88 119 71 69 73 70 54 58 49 47 51 61 45 69 44 64 78 129 91 70 98 161 182 276 256 351 244
54 50 53 58 71 86 100 98 106 131 153 157 157 138 105 81 87 103 86 90 91 99 82 47 49 47 39 42 46 28 32 83 70 67 68 84 108 157 147 63 282 59 19 282 279 336 69
49 47 43 42 50 71 97 123 114 128 156 184 197 201 181 111 102 88 79 84 89 72 77 342 3 34 23 57 54 33 37 74 66 111 84 75 97 98 89 58 330 342 338 264 236 303 332
47 44 41 37 34 46 86 133 143 129 144 170 190 205 209 192 94 111 98 71 75 21 71 331 16 51 45 76 121 25 41 68 74 55 226 81 42 36 48 14 327 335 6 67 103 90 300
43 39 37 35 30 29 55 133 166 149 124 137 156 168 185 208 228 163 126 70 350 45 83 49 27 29 59 34 55 36 53 72 93 65 51 94 50 14 25 195 326 316 180 92 96 335 296
34 33 32 31 30 27 34 77 159 175 145 131 144 144 150 166 168 170 165 156 37 85 318 305 94 68 84 24 40 33 44 37 48 90 36 16 16 334 340 298 303 358 357 324 307 333 346
31 28 26 26 26 27 31 42 135 166 170 147 158 160 148 143 157 162 152 60 72 206 202 163 120 105 93 32 58 24 84 67 61 57 95 24 42 164 328 40 355 23 8 47 295 320 314
24 26 24 23 24 26 27 43 114 148 159 156 158 158 154 168 153 156 150 69 189 203 158 152 96 88 20 53 114 85 47 120 5 38 38 358 222 128 32 119 300 45 47 56 172 163 271
18 19 23 20 24 26 29 38 103 144 148 141 142 146 150 157 149 142 77 171 161 189 148 144 169 184 177 224 157 107 186 169 159 133 147 167 283 159 136 106 50 305 133 128 51 347 304
14 10 17 17 18 25 30 41 115 154 153 141 140 133 147 156 147 89 134 195 197 180 157 151 191 146 174 191 178 193 170 174 185 146 113 139 202 128 149 202 181 155 153 79 131 169 311
8 4 5 13 12 19 29 37 94 171 163 154 132 59 157 158 91 51 135 191 147 159 143 120 116 127 170 166 169 174 190 217 170 156 143 135 158 261 244 77 200 202 180 174 187 175 221
355 0 355 360 7 9 20 33 71 180 179 166 119 95 162 175 127 13 248 87 168 141 173 146 135 150 163 172 157 157 146 189 162 148 166 169 177 300 194 168 211 229 191 160 114 110 213
346 346 350 349 357 2 5 21 43 163 181 174 132 44 108 163 117 136 152 198 191 174 155 145 131 123 117 153 30 173 168 171 177 138 141 154 180 228 242 268 123 207 194 197 179 194 184
336 335 339 340 343 353 358 5 21 153 185 185 147 117 147 250 244 149 148 150 156 207 200 189 91 202 168 167 174 198 144 148 136 153 121 185 256 219 264 269 260 253 245 205 205 179 224
328 330 329 332 334 337 349 359 5 64 179 195 163 162 137 109 115 134 118 208 185 183 164 228 206 183 188 178 193 193 164 200 195 175 172 165 250 276 277 176 208 265 244 222 227 221 256
316 323 323 321 326 327 332 344 2 5 186 189 194 174 166 155 130 128 221 201 208 174 205 214 196 135 200 232 203 207 195 171 179 163 180 174 200 329 269 299 300 269 232 192 187 197 178
304 317 318 316 315 322 322 320 328 348 216 208 189 179 171 214 189 208 215 202 198 208 163 175 182 167 164 141 124 105 92 81 159 136 150 154 172 203 289 323 295 11 156 176 213 232 211
298 318 312 310 311 308 305 312 308 304 227 214 213 200 187 190 208 245 224 182 147 159 136 160 168 171 154 147 71 355 342 221 121 100 178 166 152 196 284 269 295 255 187 186 188 279 217
280 307 326 311 306 305 298 291 292 294 285 227 214 212 198 170 233 203 164 189 161 148 136 148 148 160 165 94 102 212 239 207 194 158 86 106 94 191 156 257 261 289 159 149 143 280 202
262 280 308 322 312 306 299 283 277 281 282 256 221 206 202 226 226 186 188 178 172 151 120 153 166 172 181 120 171 210 245 182 207 194 167 169 194 218 201 251 277 245 158 147 181 271 186
251 261 280 304 314 313 309 288 273 262 263 263 244 226 212 224 239 225 222 197 177 179 158 156 130 188 109 174 189 214 221 217 248 167 179 180 167 195 179 212 275 154 132 198 219 179 202
243 247 258 279 302 303 303 300 280 263 257 257 248 248 249 243 253 225 235 237 231 223 203 177 209 170 175 117 208 145 210 210 219 258 159 224 209 186 199 216 245 186 218 231 248 236 232
Wind_Speed_850mb
28 28 28 30 30 30 31 31 31 32 35 37 33 29 29 28 25 25 29 31 39 34 30 18 27 23 40 89 39 58 62 43 21 22 30 41 57 32 25 41 64 39 30 30 36 36 29
32 30 30 29 28 27 26 27 29 32 35 34 30 26 26 24 22 25 29 31 31 34 33 46 21 11 39 74 45 53 57 40 35 22 25 30 49 66 35 11 17 31 52 36 18 22 16
31 31 29 27 26 26 25 25 25 26 25 23 21 21 22 19 14 16 22 26 26 33 49 49 26 66 96 45 45 37 57 50 38 38 58 56 23 30 42 50 47 47 29 22 9 4 10
31 30 28 26 27 27 26 26 25 23 21 19 21 27 20 14 15 19 15 17 24 25 23 27 24 66 46 43 42 35 38 50 45 56 62 55 54 67 23 54 12 8 6 5 9 5 5
29 28 28 27 26 26 25 24 23 21 20 22 29 24 20 20 15 15 15 12 19 28 35 28 19 38 20 21 47 45 33 44 49 58 67 60 69 46 17 11 9 14 6 8 3 7 4
25 24 24 24 24 24 21 20 19 20 21 24 25 22 17 16 16 22 43 50 35 3 9 18 34 22 29 42 22 41 44 28 24 39 27 30 27 20 19 6 7 7 5 5 6 8 8
23 22 20 19 19 21 20 17 17 20 24 26 26 19 15 11 11 24 9 8 9 31 74 52 44 38 14 31 46 33 19 47 58 58 15 39 28 27 21 21 14 13 4 6 6 6 6
20 19 18 15 13 14 16 16 14 15 18 23 25 18 18 22 21 8 3 25 26 23 34 37 32 38 44 29 23 45 35 22 28 15 13 20 26 6 12 11 10 8 7 3 7 4 6
21 19 17 14 11 8 10 12 13 13 14 19 20 16 13 17 23 20 34 38 22 14 15 15 23 25 15 33 28 33 21 26 28 35 29 21 9 12 3 5 3 5 11 6 8 6 2
24 23 21 17 12 7 5 8 9 10 11 14 18 15 8 8 9 14 22 20 13 8 8 17 14 13 15 8 17 32 15 5 8 9 9 17 5 6 6 8 6 7 11 8 4 5 7
25 25 23 21 16 8 3 5 8 8 9 10 13 14 15 10 9 8 10 8 5 2 8 8 8 9 22 16 7 22 22 28 12 7 3 4 3 6 10 4 6 7 6 2 3 2 6
22 24 25 23 21 13 5 3 8 8 8 9 11 12 11 17 10 6 6 4 3 9 4 2 3 5 7 15 6 4 14 17 9 11 24 6 2 3 3 2 4 9 3 4 4 1 2
20 22 24 25 23 17 8 4 5 10 7 8 11 13 11 10 10 11 8 2 8 10 3 0 3 4 6 6 9 11 7 13 7 2 10 3 2 3 2 5 3 11 4 5 3 4 6
18 20 22 24 25 21 11 6 6 9 11 7 11 12 10 13 11 13 14 8 12 4 6 2 4 3 5 2 4 5 4 5 8 6 5 6 1 0 0 4 4 10 9 6 9 8 13
17 19 20 22 24 23 15 8 6 11 12 8 11 12 9 13 12 15 4 8 12 10 7 10 4 4 2 1 5 6 6 3 1 4 4 3 2 3 2 4 2 3 7 2 1 1 7
17 18 19 19 21 22 18 9 6 11 11 11 13 12 10 12 18 10 8 5 3 6 6 4 7 4 5 3 2 2 4 4 6 2 1 6 4 1 7 6 16 2 13 1 5 11 10
15 17 18 19 19 21 19 10 4 8 11 13 11 6 10 17 12 3 6 7 5 5 5 4 8 5 3 6 5 4 6 3 6 6 4 5 1 4 4 10 9 6 5 7 4 2 6
15 17 17 18 18 19 18 12 3 8 12 11 4 4 12 18 5 7 5 6 7 8 6 3 6 4 8 10 6 6 5 1 11 13 4 3 3 7 2 3 4 3 6 8 4 4 4
14 14 17 17 17 17 17 14 5 6 13 10 4 5 9 15 6 0 2 1 3 6 5 5 4 2 2 8 3 4 6 1 12 6 8 11 2 8 5 4 0 9 9 7 10 5 13
17 15 15 16 16 16 16 14 7 6 14 9 2 4 4 6 7 11 7 5 5 3 5 7 7 6 4 3 2 8 7 7 8 6 9 10 5 8 8 4 4 8 12 20 11 7 7
17 17 15 15 14 13 14 14 9 6 14 11 2 2 4 3 4 8 7 8 6 6 3 8 1 7 9 7 5 7 5 5 3 14 6 5 7 7 20 26 20 22 25 26 25 11 14
18 18 16 15 13 13 12 11 11 2 15 18 4 5 6 5 3 9 1 10 13 6 12 7 7 9 10 9 11 13 12 9 9 9 9 2 3 3 10 5 6 23 27 30 34 17 27
16 17 18 16 14 11 11 9 7 4 9 9 14 8 3 3 6 6 7 9 12 14 12 3 13 9 8 13 9 5 15 5 13 17 16 9 4 2 9 7 18 14 12 28 14 19 12
16 15 16 16 15 11 10 9 5 2 5 13 10 11 8 4 8 9 5 14 14 18 6 8 10 8 7 13 16 12 9 9 18 8 11 11 6 3 8 17 6 2 7 10 14 15 34
15 13 15 14 16 14 7 8 11 4 3 6 13 12 9 4 9 9 17 8 7 9 5 9 7 8 21 10 3 2 2 1 2 1 6 2 6 3 5 5 18 6 8 13 13 12 24
18 14 14 15 13 13 12 7 8 10 6 5 6 14 11 5 10 8 9 14 7 5 5 5 8 21 14 6 4 5 7 4 6 6 7 8 4 3 4 4 9 1 8 13 8 11 23
17 15 12 14 15 13 11 11 7 8 10 7 6 10 12 8 10 15 11 9 15 10 6 8 13 12 13 4 4 8 7 3 8 11 12 8 6 13 9 9 21 20 19 16 3 5 31
23 17 14 13 15 16 13 10 10 9 9 11 11 8 13 10 12 16 18 16 15 16 8 18 12 6 5 6 6 5 7 6 5 6 12 17 17 10 9 9 18 28 19 14 11 19 26
28 22 17 12 15 18 16 12 10 11 11 11 12 12 12 15 10 12 22 26 27 18 17 35 6 12 21 6 5 3 6 4 6 6 2 9 12 11 22 15 8 68 23 34 22 22 26
Wind_Direction_850mb
78 79 82 86 88 93 95 96 101 104 107 108 105 108 115 111 93 78 71 68 58 73 65 64 82 75 70 64 39 21 14 26 92 122 108 98 88 85 91 101 84 92 98 91 108 99 96
81 83 87 87 88 92 96 99 105 110 115 110 100 100 108 112 92 88 82 67 76 68 64 49 86 87 77 68 31 31 29 50 72 79 88 90 99 109 84 86 68 120 114 111 99 105 133
77 82 86 84 84 91 97 102 106 113 124 115 100 105 113 114 103 95 71 80 69 67 71 62 75 80 68 50 40 56 39 56 73 74 92 101 81 110 101 91 109 117 107 105 81 107 129
69 75 82 81 83 91 97 99 105 114 121 120 106 109 112 116 99 93 76 85 66 66 69 56 70 66 74 55 46 57 55 65 77 80 86 98 103 92 85 121 90 86 83 87 37 27 12
71 72 75 75 78 87 95 97 98 105 115 118 117 105 106 111 97 79 84 83 90 80 69 65 68 58 59 39 44 48 50 82 86 98 94 89 86 89 110 99 92 34 83 68 179 32 316
71 72 72 74 75 81 91 92 91 101 117 126 128 114 101 104 104 107 94 83 74 144 78 54 48 66 51 38 58 52 48 65 103 107 87 52 69 82 48 29 57 26 39 40 326 348 344
65 66 71 75 74 81 87 94 96 110 117 129 134 119 92 76 119 146 66 50 74 47 68 74 73 84 81 67 52 51 52 64 71 67 55 27 72 58 42 55 84 94 110 229 258 322 265
59 62 63 70 79 81 88 95 108 123 133 140 137 117 90 74 81 102 320 92 88 119 71 69 73 70 54 58 49 47 51 61 45 69 44 64 78 129 91 70 98 161 182 276 256 351 244
54 50 53 58 71 86 100 98 106 131 153 157 157 138 105 81 87 103 86 90 91 99 82 47 49 47 39 42 46 28 32 83 70 67 68 84 108 157 147 63 282 59 19 282 279 336 69
49 47 43 42 50 71 97 123 114 128 156 184 197 201 181 111 102 88 79 84 89 72 77 342 3 34 23 57 54 33 37 74 66 111 84 75 97 98 89 58 330 342 338 264 236 303 332
47 44 41 37 34 46 86 133 143 129 144 170 190 205 209 192 94 111 98 71 75 21 71 331 16 51 45 76 121 25 41 68 74 55 226 81 42 36 48 14 327 335 6 67 103 90 300
43 39 37 35 30 29 55 133 166 149 124 137 156 168 185 208 228 163 126 70 350 45 83 49 27 29 59 34 55 36 53 72 93 65 51 94 50 14 25 195 326 316 180 92 96 335 296
34 33 32 31 30 27 34 77 159 175 145 131 144 144 150 166 168 170 165 156 37 85 318 305 94 68 84 24 40 33 44 37 48 90 36 16 16 334 340 298 303 358 357 324 307 333 346
31 28 26 26 26 27 31 42 135 166 170 147 158 160 148 143 157 162 152 60 72 206 202 163 120 105 93 32 58 24 84 67 61 57 95 24 42 164 328 40 355 23 8 47 295 320 314
24 26 24 23 24 26 27 43 114 148 159 156 158 158 154 168 153 156 150 69 189 203 158 152 96 88 20 53 114 85 47 120 5 38 38 358 222 128 32 119 300 45 47 56 172 163 271
18 19 23 20 24 26 29 38 103 144 148 141 142 146 150 157 149 142 77 171 161 189 148 144 169 184 177 224 157 107 186 169 159 133 147 167 283 159 136 106 50 305 133 128 51 347 304
14 10 17 17 18 25 30 41 115 154 153 141 140 133 147 156 147 89 134 195 197 180 157 151 191 146 174 191 178 193 170 174 185 146 113 139 202 128 149 202 181 155 153 79 131 169 311
8 4 5 13 12 19 29 37 94 171 163 154 132 59 157 158 91 51 135 191 147 159 143 120 116 127 170 166 169 174 190 217 170 156 143 135 158 261 244 77 200 202 180 174 187 175 221
355 0 355 360 7 9 20 33 71 180 179 166 119 95 162 175 127 13 248 87 168 141 173 146 135 150 163 172 157 157 146 189 162 148 166 169 177 300 194 168 211 229 191 160 114 110 213
346 346 350 349 357 2 5 21 43 163 181 174 132 44 108 163 117 136 152 198 191 174 155 145 131 123 117 153 30 173 168 171 177 138 141 154 180 228 242 268 123 207 194 197 179 194 184
336 335 339 340 343 353 358 5 21 153 185 185 147 117 147 250 244 149 148 150 156 207 200 189 91 202 168 167 174 198 144 148 136 153 121 185 256 219 264 269 260 253 245 205 205 179 224
328 330 329 332 334 337 349 359 5 64 179 195 163 162 137 109 115 134 118 208 185 183 164 228 206 183 188 178 193 193 164 200 195 175 172 165 250 276 277 176 208 265 244 222 227 221 256
316 323 323 321 326 327 332 344 2 5 186 189 194 174 166 155 130 128 221 201 208 174 205 214 196 135 200 232 203 207 195 171 179 163 180 174 200 329 269 299 300 269 232 192 187 197 178
304 317 318 316 315 322 322 320 328 348 216 208 189 179 171 214 189 208 215 202 198 208 163 175 182 167 164 141 124 105 92 81 159 136 150 154 172 203 289 323 295 11 156 176 213 232 211
298 318 312 310 311 308 305 312 308 304 227 214 213 200 187 190 208 245 224 182 147 159 136 160 168 171 154 147 71 355 342 221 121 100 178 166 152 196 284 269 295 255 187 186 188 279 217
280 307 326 311 306 305 298 291 292 294 285 227 214 212 198 170 233 203 164 189 161 148 136 148 148 160 165 94 102 212 239 207 194 158 86 106 94 191 156 257 261 289 159 149 143 280 202
262 280 308 322 312 306 299 283 277 281 282 256 221 206 202 226 226 186 188 178 172 151 120 153 166 172 181 120 171 210 245 182 207 194 167 169 194 218 201 251 277 245 158 147 181 271 186
251 261 280 304 314 313 309 288 273 262 263 263 244 226 212 224 239 225 222 197 177 179 158 156 130 188 109 174 189 214 221 217 248 167 179 180 167 195 179 212 275 154 132 198 219 179 202
243 247 258 279 302 303 303 300 280 263 257 257 248 248 249 243 253 225 235 237 231 223 203 177 209 170 175 117 208 145 210 210 219 258 159 224 209 186 199 216 245 186 218 231 248 236 232